Weather History for KRBO - February, 2013

Change the Weather History Date:

Thursday, February 7, 2013

  Actual Average (KCRP) Record (KCRP)
Temperature  
Mean Temperature 67 °F 59 °F  
Max Temperature 73 °F 69 °F 83 °F (2000)
Min Temperature 61 °F 49 °F 20 °F (1895)
Degree Days  
Heating Degree Days 0 7  
Month to date heating degree days 53  
Since 1 July heating degree days 680  
Cooling Degree Days 2 1  
Month to date cooling degree days 7  
Year to date cooling degree days 37  
Growing Degree Days 17 (Base 50)    
Moisture  
Dew Point 64 °F    
Average Humidity 91    
Maximum Humidity 97    
Minimum Humidity 80    
Precipitation  
Precipitation 0.00 in 0.06 in 1.20 in (1907)
Month to date precipitation 0.40  
Year to date precipitation 1.94  
Snow  
Snow 0.00 in - - ()
Month to date snowfall  
Since 1 July snowfall  
Snow Depth -    
Sea Level Pressure  
Sea Level Pressure 29.94 in    
Wind  
Wind Speed 5 mph (North)    
Max Wind Speed 8 mph    
Max Gust Speed -    
Visibility 6 miles    
Events Fog    
T = Trace of Precipitation, MM = Missing Value Source: NWS Daily Summary

Daily Weather History Graph

Daily Weather History Graph

Search for Another Location

Airport or City:

Trip Planner

Search our weather history database for the weather conditions in past years. The results will help you decide how hot, cold, wet, or windy it might be!

Date:

Astronomy

Feb. 07, 2013 Rise Set
Actual Time 7:13 AM CST 6:16 PM CST
Civil Twilight 6:49 AM CST 6:40 PM CST
Nautical Twilight 6:21 AM CST 7:08 PM CST
Astronomical Twilight 5:54 AM CST 7:35 PM CST
Moon 4:46 AM CST (2/7) 3:49 PM CST (2/7)
Length of Visible Light 11h 51m
Length of Day
11h 02m
Waning Crescent, 9% of the Moon is Illuminated
Feb 7
Waning Crescent
Feb 10
New
Feb 17
First Quarter
Feb 25
Full
Mar 4
Last Quarter

Hourly Weather History & Observations

Time (CST) Temp. Dew Point Humidity Pressure Visibility Wind Dir Wind Speed Gust Speed Precip Events Conditions
12:15 AM 63.5 °F 60.8 °F 91% 29.91 in 10.0 mi East 8.1 mph - N/A   Clear
12:55 AM 63.5 °F 60.8 °F 91% 29.91 in 10.0 mi ENE 8.1 mph - N/A   Scattered Clouds
1:15 AM 63.9 °F 61.2 °F 91% 29.91 in 10.0 mi ENE 8.1 mph - N/A   Overcast
1:35 AM 64.4 °F 61.3 °F 90% 29.91 in 10.0 mi ENE 6.9 mph - N/A   Mostly Cloudy
1:55 AM 63.5 °F 60.6 °F 90% 29.91 in 7.0 mi North 3.5 mph - N/A   Clear
2:15 AM 61.7 °F 59.9 °F 94% 29.91 in 7.0 mi North 4.6 mph - N/A   Clear
2:35 AM 61.3 °F 59.9 °F 95% 29.90 in 7.0 mi NNE 4.6 mph - N/A   Scattered Clouds
3:15 AM 62.6 °F 60.4 °F 93% 29.89 in 7.0 mi NNE 4.6 mph - N/A   Overcast
3:35 AM 62.6 °F 60.4 °F 93% 29.90 in 7.0 mi North 5.8 mph - N/A   Overcast
3:55 AM 62.2 °F 60.3 °F 93% 29.89 in 7.0 mi North 5.8 mph - N/A   Overcast
4:15 AM 61.7 °F 60.1 °F 94% 29.89 in 7.0 mi NNE 5.8 mph - N/A   Overcast
4:35 AM 61.7 °F 59.9 °F 94% 29.89 in 7.0 mi NNE 5.8 mph - N/A   Overcast
4:55 AM 61.7 °F 60.1 °F 94% 29.89 in 5.0 mi NNE 5.8 mph - N/A   Overcast
5:15 AM 61.9 °F 60.4 °F 95% 29.89 in 5.0 mi NNE 4.6 mph - N/A   Overcast
5:35 AM 62.2 °F 60.8 °F 95% 29.89 in 5.0 mi NNE 4.6 mph - N/A   Overcast
5:55 AM 62.6 °F 61.0 °F 94% 29.89 in 5.0 mi NNE 4.6 mph - N/A   Overcast
6:15 AM 62.6 °F 61.0 °F 94% 29.90 in 5.0 mi NE 4.6 mph - N/A   Overcast
6:35 AM 62.8 °F 61.3 °F 95% 29.90 in 5.0 mi Calm Calm - N/A   Overcast
6:55 AM 63.0 °F 61.5 °F 95% 29.91 in 5.0 mi NE 3.5 mph - N/A   Overcast
7:15 AM 63.0 °F 61.7 °F 96% 29.92 in 4.0 mi North 3.5 mph - N/A   Overcast
7:35 AM 63.0 °F 61.7 °F 96% 29.92 in 2.0 mi North 3.5 mph - N/A   Overcast
7:55 AM 63.0 °F 61.7 °F 96% 29.93 in 1.5 mi North 3.5 mph - N/A   Overcast
8:15 AM 63.5 °F 62.1 °F 95% 29.94 in 1.8 mi North 4.6 mph - N/A   Overcast
8:35 AM 63.7 °F 62.2 °F 95% 29.94 in 2.5 mi North 3.5 mph - N/A   Overcast
8:55 AM 64.0 °F 62.6 °F 95% 29.95 in 2.5 mi Calm Calm - N/A   Overcast
9:15 AM 64.4 °F 63.0 °F 95% 29.96 in 1.8 mi North 4.6 mph - N/A   Overcast
9:35 AM 64.8 °F 63.5 °F 96% 29.96 in 1.5 mi North 5.8 mph - N/A   Overcast
10:15 AM 65.3 °F 63.7 °F 94% 29.97 in 1.5 mi North 5.8 mph - N/A   Overcast
10:35 AM 65.5 °F 64.0 °F 95% 29.97 in 2.0 mi North 4.6 mph - N/A   Overcast
10:55 AM 65.7 °F 64.4 °F 96% 29.98 in 1.5 mi North 5.8 mph - N/A   Overcast
11:15 AM 66.2 °F 64.8 °F 95% 29.97 in 2.0 mi North 5.8 mph - N/A   Overcast
11:35 AM 66.9 °F 65.5 °F 95% 29.97 in 3.0 mi NNE 4.6 mph - N/A   Overcast
11:55 AM 68.2 °F 66.0 °F 93% 29.97 in 7.0 mi North 4.6 mph - N/A   Overcast
12:15 PM 68.4 °F 65.7 °F 91% 29.97 in 7.0 mi North 5.8 mph - N/A   Overcast
12:35 PM 69.8 °F 66.2 °F 88% 29.96 in 7.0 mi NW 3.5 mph - N/A   Overcast
12:55 PM 70.5 °F 66.7 °F 88% 29.96 in 10.0 mi NW 4.6 mph - N/A   Overcast
1:15 PM 70.9 °F 66.7 °F 87% 29.94 in 10.0 mi North 5.8 mph - N/A   Overcast
1:35 PM 71.2 °F 66.6 °F 85% 29.94 in 10.0 mi NNW 5.8 mph - N/A   Overcast
1:55 PM 72.1 °F 67.3 °F 85% 29.93 in 10.0 mi NNW 6.9 mph - N/A   Overcast
2:15 PM 72.7 °F 67.5 °F 84% 29.92 in 10.0 mi NW 3.5 mph - N/A   Overcast
2:35 PM 73.0 °F 67.1 °F 82% 29.92 in 10.0 mi NW 4.6 mph - N/A   Overcast
2:55 PM 72.9 °F 67.3 °F 83% 29.92 in 10.0 mi WNW 4.6 mph - N/A   Overcast
3:15 PM 73.2 °F 67.3 °F 82% 29.91 in 10.0 mi Calm Calm - N/A   Overcast
3:35 PM 73.8 °F 67.5 °F 81% 29.91 in 10.0 mi West 5.8 mph - N/A   Overcast
3:55 PM 73.6 °F 67.6 °F 82% 29.91 in 10.0 mi West 5.8 mph - N/A   Overcast
4:15 PM 73.8 °F 67.5 °F 81% 29.91 in 10.0 mi WNW 4.6 mph - N/A   Overcast
4:35 PM 73.8 °F 67.1 °F 80% 29.91 in 10.0 mi WNW 3.5 mph - N/A   Overcast
4:55 PM 73.8 °F 67.3 °F 80% 29.91 in 10.0 mi Calm Calm - N/A   Overcast
5:15 PM 73.6 °F 67.3 °F 81% 29.92 in 10.0 mi WNW 3.5 mph - N/A   Overcast
5:35 PM 73.8 °F 67.3 °F 80% 29.92 in 10.0 mi NW 4.6 mph - N/A   Overcast
5:55 PM 73.4 °F 66.7 °F 80% 29.93 in 10.0 mi NW 3.5 mph - N/A   Overcast
6:15 PM 72.9 °F 66.9 °F 82% 29.93 in 10.0 mi NW 3.5 mph - N/A   Scattered Clouds
6:35 PM 72.0 °F 66.6 °F 83% 29.93 in 10.0 mi NW 3.5 mph - N/A   Scattered Clouds
6:55 PM 71.2 °F 66.7 °F 86% 29.94 in 10.0 mi Calm Calm - N/A   Scattered Clouds
7:15 PM 70.3 °F 66.6 °F 88% 29.94 in 10.0 mi Calm Calm - N/A   Mostly Cloudy
7:35 PM 68.9 °F 66.2 °F 91% 29.95 in 7.0 mi Calm Calm - N/A   Scattered Clouds
7:55 PM 68.4 °F 65.8 °F 92% 29.95 in 7.0 mi East 8.1 mph - N/A   Clear
8:15 PM 68.0 °F 65.8 °F 93% 29.96 in 7.0 mi East 5.8 mph - N/A   Clear
8:35 PM 67.3 °F 65.3 °F 93% 29.96 in 7.0 mi East 5.8 mph - N/A   Clear
8:55 PM 66.2 °F 64.4 °F 94% 29.97 in 5.0 mi ESE 4.6 mph - N/A   Clear
9:15 PM 66.0 °F 64.4 °F 94% 29.97 in 4.0 mi East 3.5 mph - N/A   Clear
9:35 PM 65.7 °F 64.2 °F 95% 29.98 in 3.0 mi ESE 3.5 mph - N/A   Clear
9:55 PM 65.3 °F 63.9 °F 95% 29.98 in 2.0 mi ESE 3.5 mph - N/A   Clear
10:15 PM 65.1 °F 63.7 °F 95% 29.98 in 0.8 mi SE 4.6 mph - N/A   Mist
10:35 PM 63.7 °F 62.6 °F 96% 29.99 in 0.2 mi SSE 4.6 mph - N/A Fog Fog
10:55 PM 63.9 °F 62.8 °F 96% 29.99 in 0.5 mi South 5.8 mph - N/A Fog Fog
11:15 PM 63.7 °F 62.6 °F 96% 30.00 in 0.2 mi SSE 3.5 mph - N/A Fog Fog
11:35 PM 63.1 °F 62.1 °F 96% 29.99 in 0.2 mi SSE 3.5 mph - N/A Fog Fog
11:55 PM 63.5 °F 62.6 °F 97% 30.00 in 0.2 mi Calm Calm - N/A Fog Fog